Showing default

QIANFAN-108, 66050

Orbit data source: Space-Track

QIANFAN-108, 66050 is a Chinese payload satellite in LEO that was launched on Fri, 17 Oct 2025 UTC via a CHANG ZHENG 6A launch vehicle from the Taiyaun Space Center, China (TSC). Payload-class satellites include a variety of spacecraft equipped with specific instruments for various scientific and technological missions. These include communications satellites like Starlink; space stations such as the ISS; scientific satellites like the Hubble; Earth observation satellites from companies like Planet Labs, Umbra, and HawkEye 360; GPS; miniature CubeSats for education and research; and military/defense satellites.

Loading next visibility...
Identifier
66050, 2025-233T
Orbit
LEO
Country
Flag of CNCN / PRC
Related business
Manufacturer
SECM
Mission
Operational Commercial Communications
Bus & Motor
QIANFAN, Unknown motor
Mass
267 kg wet, ~267 kg dry
Launch date (UTC)
2025-10-17 (8 months ago)
Launch vehicle
CHANG ZHENG 6A
Launch site
Taiyaun Space Center, China (TSC)
Object type
Payload
Rocket body
Debris
Shape & HBR
Box + 1 Pan, 14.5 m
Radar Cross Section
13.200 m², Large (>1 m²)

Expand to show TLE details & history
Last TLE update: 10 hours ago

TLE from 10 hours ago
0 QIANFAN-108
1 66050U 25233T   26177.60912757  .00000099  00000-0  13538-3 0  9993
2 66050  88.9997  42.2236 0002286  86.4780 273.6632 13.51013840 34461
Epoch: 2026-06-26T14:37Z
TLE epoch observation values (Epoch: 2026-06-26T14:37:08.622Z)
Latitude
-0.00006°
Longitude
-91.79751°
Altitude
1,071.376 km
Speed
7.316 km/s
True Right ascension
02h 48m 53s
True Declination
0° 00' 00"
Sunlit
Object was in daylight at epoch
Visualization orbit readout
Latitude
Unknown
Longitude
Unknown
Altitude
Unknown
Speed
Unknown
Apparent Right ascension
Unknown
Apparent Declination
Unknown
Sunlit
N/A
Visualization observer readout
Local Sidereal Time
12:09:54
Azimuth
Unknown
Elevation
Unknown
Doppler factor
Unknown
Orbital elements
Apogee altitude
1,067.283 km
Perigee altitude
1,063.88 km
Semi-major axis
7,443.719 km
Eccentricity
0.00023
Inclination
88.9997°
RAAN
42.2236°
Arg. of periapsis
86.478°
True anomaly
273.63706°
Mean anomaly
273.6632°
Eccentric anomaly
273.65013°
Mean motion
3.37955 °/min
Orbital period
106.52 mins
BSTAR
0.00013538
Loading maneuver chart data...
Computing Atmospheric mass density...
Loading historical data...
Loading historical data...
Loading historical data...
Loading historical data...
Loading historical data...
Loading historical data...
Loading historical data...

Documentation

Showing up to 5 results
|